EZY11SC EGCC-LXGB

Flight info

Callsign EZY11SC
Flight time 2h 39m
Altitude 23000
Route ASMIM P16 NOKIN P17 BEPHE/N0431F380 DCT OSSEP DCT ELNIF DCT ZESPE DCT KLAKI DCT SALCO/N0437F390 DCT DELOG DCT CRISA DCT VULPE DCT MAR N864 PIMOS
Aircraft A20N/M-SDE2E3FGHIRWXY/LB1

Departure

Time 2026-05-05 16:04
Airport Manchester Airport (EGCC)

Arrival

Time 2026-05-05 18:43
Airport Gibraltar Airport (LXGB)
Time Latitude Longitude Altitude Speed Heading
2026-05-05 15:19 53.36409 -2.27685 255 ft 0 kts 45°
2026-05-05 15:52 53.36402 -2.27696 255 ft 2 kts 28°
2026-05-05 15:52 53.36387 -2.27708 255 ft 2 kts 13°
2026-05-05 15:53 53.36370 -2.27710 255 ft 2 kts 350°
2026-05-05 15:53 53.36355 -2.27702 255 ft 2 kts 332°
2026-05-05 15:53 53.36341 -2.27687 255 ft 2 kts 318°
2026-05-05 15:53 53.36330 -2.27668 255 ft 2 kts 302°
2026-05-05 15:54 53.36327 -2.27659 255 ft 0 kts 290°
2026-05-05 15:57 53.36329 -2.27670 255 ft 3 kts 289°
2026-05-05 15:57 53.36337 -2.27716 255 ft 6 kts 285°
2026-05-05 15:58 53.36350 -2.27788 255 ft 7 kts 297°
2026-05-05 15:58 53.36392 -2.27862 255 ft 10 kts 306°
2026-05-05 15:58 53.36373 -2.27963 255 ft 11 kts 224°
2026-05-05 15:58 53.36310 -2.28050 255 ft 13 kts 200°
2026-05-05 15:59 53.36220 -2.28062 255 ft 14 kts 147°
2026-05-05 15:59 53.36140 -2.27950 255 ft 16 kts 139°
2026-05-05 15:59 53.36078 -2.27868 255 ft 18 kts 143°
2026-05-05 15:59 53.35970 -2.27737 255 ft 20 kts 155°
2026-05-05 16:00 53.35838 -2.27729 253 ft 20 kts 185°
2026-05-05 16:00 53.35712 -2.27758 245 ft 5 kts 195°
2026-05-05 16:00 53.35665 -2.27815 242 ft 13 kts 231°
2026-05-05 16:00 53.35596 -2.27959 238 ft 19 kts 232°
2026-05-05 16:01 53.35491 -2.28128 236 ft 23 kts 205°
2026-05-05 16:01 53.35336 -2.28186 233 ft 24 kts 198°
2026-05-05 16:01 53.35219 -2.28325 232 ft 12 kts 230°
2026-05-05 16:01 53.35156 -2.28457 228 ft 13 kts 231°
2026-05-05 16:02 53.35119 -2.28533 227 ft 9 kts 231°
2026-05-05 16:02 53.35081 -2.28612 229 ft 9 kts 231°
2026-05-05 16:02 53.35045 -2.28687 228 ft 1 kts 230°
2026-05-05 16:02 53.35008 -2.28744 227 ft 10 kts 204°
2026-05-05 16:03 53.34937 -2.28711 228 ft 12 kts 142°
2026-05-05 16:03 53.34871 -2.28597 228 ft 14 kts 111°
2026-05-05 16:03 53.34906 -2.28466 232 ft 14 kts 52°
2026-05-05 16:03 53.35107 -2.28052 233 ft 81 kts 51°
2026-05-05 16:04 53.35590 -2.27053 257 ft 135 kts 51°
2026-05-05 16:04 53.36223 -2.25731 644 ft 144 kts 50°
2026-05-05 16:04 53.36836 -2.24434 1295 ft 140 kts 49°
2026-05-05 16:04 53.37441 -2.23187 1937 ft 138 kts 48°
2026-05-05 16:05 53.38081 -2.21887 2403 ft 154 kts 47°
2026-05-05 16:05 53.39004 -2.20867 2767 ft 170 kts
2026-05-05 16:05 53.40207 -2.21206 3234 ft 189 kts 332°
2026-05-05 16:05 53.41250 -2.22764 3635 ft 219 kts 308°
2026-05-05 16:06 53.42092 -2.25045 4233 ft 242 kts 298°
2026-05-05 16:06 53.42861 -2.27700 4799 ft 264 kts 296°
2026-05-05 16:06 53.43677 -2.30441 4962 ft 260 kts 298°
2026-05-05 16:06 53.44494 -2.33259 4998 ft 271 kts 297°
2026-05-05 16:07 53.45321 -2.36103 5207 ft 268 kts 298°
2026-05-05 16:07 53.46204 -2.38889 5721 ft 275 kts 300°
2026-05-05 16:07 53.47093 -2.41663 6825 ft 271 kts 300°
2026-05-05 16:07 53.47986 -2.44429 7964 ft 268 kts 300°
2026-05-05 16:08 53.48897 -2.47175 8989 ft 271 kts 300°
2026-05-05 16:08 53.49842 -2.49955 9890 ft 278 kts 300°
2026-05-05 16:08 53.50824 -2.52806 10583 ft 291 kts 300°
2026-05-05 16:08 53.51599 -2.56074 10908 ft 315 kts 279°
2026-05-05 16:09 53.51515 -2.59851 11356 ft 333 kts 256°
2026-05-05 16:09 53.50474 -2.63327 12332 ft 336 kts 233°
2026-05-05 16:09 53.48705 -2.65934 13172 ft 346 kts 212°
2026-05-05 16:09 53.46453 -2.67313 13978 ft 354 kts 193°
2026-05-05 16:10 53.44000 -2.68001 14759 ft 358 kts 191°
2026-05-05 16:10 53.41547 -2.68771 15544 ft 359 kts 195°
2026-05-05 16:10 53.39118 -2.69809 16301 ft 362 kts 198°
2026-05-05 16:10 53.36700 -2.71069 17054 ft 365 kts 200°
2026-05-05 16:11 53.34287 -2.72452 17809 ft 367 kts 201°
2026-05-05 16:11 53.26996 -2.76815 18996 ft 374 kts 202°
2026-05-05 16:12 53.24539 -2.78282 19025 ft 374 kts 202°
2026-05-05 16:12 53.19628 -2.81199 19023 ft 374 kts 202°
2026-05-05 16:13 53.12254 -2.85561 20017 ft 377 kts 201°
2026-05-05 16:13 53.09750 -2.86921 20668 ft 382 kts 196°
2026-05-05 16:13 53.07111 -2.87594 21271 ft 388 kts 185°
2026-05-05 16:14 53.01664 -2.86676 22509 ft 398 kts 173°
2026-05-05 16:14 52.96145 -2.85147 23738 ft 402 kts 173°
2026-05-05 16:15 52.90630 -2.83650 24743 ft 408 kts 173°
2026-05-05 16:15 52.84972 -2.82128 25675 ft 414 kts 173°
2026-05-05 16:16 52.79231 -2.80587 26567 ft 421 kts 173°
2026-05-05 16:16 52.73400 -2.79026 27434 ft 427 kts 172°
2026-05-05 16:17 52.67500 -2.77448 28269 ft 432 kts 173°
2026-05-05 16:17 52.64515 -2.76652 28634 ft 435 kts 172°
2026-05-05 16:18 52.58487 -2.75971 29298 ft 441 kts 184°
2026-05-05 16:18 52.55406 -2.76257 29656 ft 443 kts 184°
2026-05-05 16:18 52.49197 -2.76826 30282 ft 449 kts 184°
2026-05-05 16:19 52.46084 -2.77099 30819 ft 445 kts 184°
2026-05-05 16:19 52.42994 -2.77366 31276 ft 445 kts 184°
2026-05-05 16:19 52.36807 -2.77902 31895 ft 449 kts 184°
2026-05-05 16:20 52.30551 -2.78442 32601 ft 450 kts 184°
2026-05-05 16:20 52.24280 -2.78979 33299 ft 450 kts 184°
2026-05-05 16:21 52.18059 -2.79509 34130 ft 447 kts 184°
2026-05-05 16:22 52.08765 -2.80303 34942 ft 447 kts 184°
2026-05-05 16:22 52.02556 -2.80830 35482 ft 447 kts 184°
2026-05-05 16:23 51.96355 -2.81354 36107 ft 444 kts 184°
2026-05-05 16:23 51.93267 -2.81614 36372 ft 443 kts 184°
2026-05-05 16:23 51.87131 -2.82134 36767 ft 445 kts 184°
2026-05-05 16:24 51.84047 -2.82562 37002 ft 444 kts 188°
2026-05-05 16:24 51.80978 -2.83226 37238 ft 444 kts 189°
2026-05-05 16:24 51.74843 -2.84558 37611 ft 444 kts 188°
2026-05-05 16:25 51.71782 -2.85214 37867 ft 443 kts 188°
2026-05-05 16:25 51.65660 -2.86523 38021 ft 444 kts 188°
2026-05-05 16:25 51.62593 -2.87176 38014 ft 443 kts 188°
2026-05-05 16:26 51.50363 -2.89774 38001 ft 446 kts 188°
2026-05-05 16:27 51.44225 -2.91071 37983 ft 445 kts 188°
2026-05-05 16:27 51.38111 -2.92361 37980 ft 444 kts 188°
2026-05-05 16:28 51.31968 -2.93653 37974 ft 445 kts 188°
2026-05-05 16:28 51.25821 -2.94943 37966 ft 442 kts 188°
2026-05-05 16:29 51.19722 -2.96220 37968 ft 445 kts 188°
2026-05-05 16:29 51.13587 -2.97499 37969 ft 443 kts 188°
2026-05-05 16:30 51.07440 -2.98779 38014 ft 446 kts 188°
2026-05-05 16:30 51.04364 -2.99417 38231 ft 445 kts 188°
2026-05-05 16:30 51.01326 -3.00048 38408 ft 445 kts 188°
2026-05-05 16:31 50.95158 -3.01324 38663 ft 447 kts 188°
2026-05-05 16:31 50.92075 -3.01961 38822 ft 446 kts 188°
2026-05-05 16:31 50.88997 -3.02596 38928 ft 447 kts 188°
2026-05-05 16:32 50.82816 -3.03869 38962 ft 446 kts 188°
2026-05-05 16:32 50.76638 -3.05138 38962 ft 448 kts 188°
2026-05-05 16:33 50.70500 -3.06395 38958 ft 447 kts 188°
2026-05-05 16:33 50.64311 -3.07659 38962 ft 448 kts 188°
2026-05-05 16:34 50.58139 -3.08916 38957 ft 446 kts 188°
2026-05-05 16:34 50.52024 -3.10158 38944 ft 444 kts 188°
2026-05-05 16:35 50.45895 -3.11400 38952 ft 446 kts 187°
2026-05-05 16:35 50.39729 -3.12741 38957 ft 446 kts 191°
2026-05-05 16:36 50.33737 -3.15286 38958 ft 446 kts 200°
2026-05-05 16:36 50.28028 -3.18907 38963 ft 445 kts 202°
2026-05-05 16:37 50.22297 -3.22571 38962 ft 448 kts 202°
2026-05-05 16:37 50.16499 -3.26238 38959 ft 449 kts 202°
2026-05-05 16:38 50.10699 -3.29890 38965 ft 448 kts 202°
2026-05-05 16:38 50.04900 -3.33531 38963 ft 448 kts 202°
2026-05-05 16:39 49.99135 -3.37143 38966 ft 449 kts 202°
2026-05-05 16:39 49.93337 -3.40765 38970 ft 449 kts 202°
2026-05-05 16:40 49.87530 -3.44384 38965 ft 447 kts 202°
2026-05-05 16:40 49.81744 -3.47980 38975 ft 448 kts 202°
2026-05-05 16:41 49.75928 -3.51288 38964 ft 448 kts 196°
2026-05-05 16:41 49.69817 -3.53264 38969 ft 448 kts 187°
2026-05-05 16:42 49.63681 -3.53936 38960 ft 448 kts 183°
2026-05-05 16:42 49.57444 -3.54482 38969 ft 447 kts 184°
2026-05-05 16:43 49.51221 -3.55057 38972 ft 448 kts 184°
2026-05-05 16:43 49.45034 -3.55633 38964 ft 447 kts 184°
2026-05-05 16:44 49.38805 -3.56211 38972 ft 449 kts 184°
2026-05-05 16:44 49.32562 -3.56788 38975 ft 451 kts 184°
2026-05-05 16:45 49.26282 -3.57367 38974 ft 451 kts 184°
2026-05-05 16:45 49.20056 -3.57939 38971 ft 450 kts 184°
2026-05-05 16:46 49.14839 -3.58418 38969 ft 450 kts 184°
2026-05-05 16:46 49.07559 -3.59084 38958 ft 450 kts 184°
2026-05-05 16:47 49.02322 -3.59562 38966 ft 450 kts 184°
2026-05-05 16:47 48.96093 -3.60129 38959 ft 449 kts 184°
2026-05-05 16:48 48.89836 -3.60698 38962 ft 450 kts 183°
2026-05-05 16:48 48.83620 -3.61261 38965 ft 451 kts 183°
2026-05-05 16:49 48.77344 -3.61828 38960 ft 451 kts 183°
2026-05-05 16:49 48.71072 -3.62393 38969 ft 451 kts 183°
2026-05-05 16:50 48.64835 -3.62954 38966 ft 451 kts 183°
2026-05-05 16:50 48.58562 -3.63517 38972 ft 451 kts 183°
2026-05-05 16:51 48.52280 -3.64078 38971 ft 451 kts 183°
2026-05-05 16:51 48.46038 -3.64636 38978 ft 452 kts 183°
2026-05-05 16:52 48.39754 -3.65195 38984 ft 452 kts 183°
2026-05-05 16:52 48.33465 -3.65754 38965 ft 452 kts 183°
2026-05-05 16:53 48.27211 -3.66308 38975 ft 452 kts 183°
2026-05-05 16:53 48.20919 -3.66864 38972 ft 452 kts 183°
2026-05-05 16:54 48.14629 -3.67418 38966 ft 452 kts 184°
2026-05-05 16:54 48.08336 -3.67971 38973 ft 453 kts 184°
2026-05-05 16:55 48.02065 -3.68521 38974 ft 453 kts 184°
2026-05-05 16:55 47.95753 -3.69074 38965 ft 453 kts 184°
2026-05-05 16:56 47.89457 -3.69622 38964 ft 453 kts 184°
2026-05-05 16:56 47.83190 -3.70168 38971 ft 453 kts 184°
2026-05-05 16:57 47.76898 -3.70715 38958 ft 453 kts 184°
2026-05-05 16:57 47.70604 -3.71261 38966 ft 451 kts 184°
2026-05-05 16:58 47.64368 -3.71800 38954 ft 451 kts 184°
2026-05-05 16:58 47.58093 -3.72341 38958 ft 451 kts 184°
2026-05-05 16:59 47.51824 -3.72881 38956 ft 450 kts 184°
2026-05-05 16:59 47.45566 -3.73418 38954 ft 450 kts 183°
2026-05-05 17:00 47.39350 -3.73949 38956 ft 449 kts 184°
2026-05-05 17:00 47.33065 -3.74486 38958 ft 455 kts 184°
2026-05-05 17:01 47.26753 -3.75026 38940 ft 453 kts 184°
2026-05-05 17:01 47.20438 -3.75562 38943 ft 453 kts 184°
2026-05-05 17:02 47.14174 -3.76094 38944 ft 453 kts 184°
2026-05-05 17:02 47.07858 -3.76628 38939 ft 453 kts 184°
2026-05-05 17:03 47.01600 -3.77156 38932 ft 453 kts 184°
2026-05-05 17:03 46.95287 -3.77689 38941 ft 453 kts 184°
2026-05-05 17:04 46.88989 -3.78217 38940 ft 453 kts 184°
2026-05-05 17:04 46.82723 -3.78743 38942 ft 453 kts 184°
2026-05-05 17:05 46.76423 -3.79269 38936 ft 453 kts 184°
2026-05-05 17:05 46.70119 -3.79797 38938 ft 453 kts 184°
2026-05-05 17:06 46.63859 -3.80317 38940 ft 453 kts 184°
2026-05-05 17:06 46.57548 -3.80842 38942 ft 453 kts 184°
2026-05-05 17:07 46.51237 -3.81364 38943 ft 453 kts 184°
2026-05-05 17:07 46.44966 -3.81883 38943 ft 453 kts 184°
2026-05-05 17:08 46.38653 -3.82404 38947 ft 454 kts 184°
2026-05-05 17:08 46.32340 -3.82923 38939 ft 454 kts 184°
2026-05-05 17:09 46.26072 -3.83437 38948 ft 454 kts 184°
2026-05-05 17:09 46.19760 -3.83955 38955 ft 454 kts 184°
2026-05-05 17:10 46.13443 -3.84471 38942 ft 454 kts 184°
2026-05-05 17:10 46.07136 -3.84985 38949 ft 454 kts 185°
2026-05-05 17:11 46.00823 -3.85500 38942 ft 454 kts 184°
2026-05-05 17:11 45.94548 -3.86008 38953 ft 454 kts 185°
2026-05-05 17:12 45.88230 -3.86521 38952 ft 454 kts 184°
2026-05-05 17:12 45.81916 -3.87029 38953 ft 454 kts 184°
2026-05-05 17:13 45.75607 -3.87538 38959 ft 454 kts 185°
2026-05-05 17:13 45.69340 -3.88042 38957 ft 454 kts 185°
2026-05-05 17:14 45.63033 -3.88548 38957 ft 453 kts 184°
2026-05-05 17:14 45.56730 -3.89053 38957 ft 453 kts 185°
2026-05-05 17:15 45.50427 -3.89557 38951 ft 453 kts 185°
2026-05-05 17:15 45.44158 -3.90056 38958 ft 453 kts 185°
2026-05-05 17:16 45.37844 -3.90558 38958 ft 454 kts 185°
2026-05-05 17:16 45.31533 -3.91060 38956 ft 454 kts 185°
2026-05-05 17:17 45.25209 -3.91560 38971 ft 454 kts 185°
2026-05-05 17:17 45.18934 -3.92058 38969 ft 454 kts 185°
2026-05-05 17:18 45.12607 -3.92555 38972 ft 455 kts 185°
2026-05-05 17:18 45.06285 -3.93053 38973 ft 455 kts 185°
2026-05-05 17:19 44.99952 -3.93549 38977 ft 455 kts 185°
2026-05-05 17:19 44.93629 -3.94045 38978 ft 455 kts 185°
2026-05-05 17:20 44.87333 -3.94537 38978 ft 455 kts 185°
2026-05-05 17:20 44.80997 -3.95031 38978 ft 455 kts 185°
2026-05-05 17:21 44.74668 -3.95523 38978 ft 455 kts 185°
2026-05-05 17:22 44.65212 -3.96256 38980 ft 455 kts 185°
2026-05-05 17:22 44.58884 -3.96747 38981 ft 455 kts 185°
2026-05-05 17:23 44.52562 -3.97235 38983 ft 454 kts 185°
2026-05-05 17:23 44.46245 -3.97722 38982 ft 454 kts 185°
2026-05-05 17:24 44.39969 -3.98205 38980 ft 454 kts 185°
2026-05-05 17:24 44.33657 -3.98690 38978 ft 454 kts 185°
2026-05-05 17:25 44.27361 -3.99315 38981 ft 453 kts 187°
2026-05-05 17:25 44.21077 -4.00080 38981 ft 453 kts 187°
2026-05-05 17:26 44.14832 -4.00813 38976 ft 453 kts 187°
2026-05-05 17:26 44.08545 -4.01533 38988 ft 452 kts 187°
2026-05-05 17:27 44.02254 -4.02250 38988 ft 452 kts 187°
2026-05-05 17:27 43.96006 -4.02961 38991 ft 453 kts 187°
2026-05-05 17:28 43.89726 -4.03672 38993 ft 453 kts 187°
2026-05-05 17:28 43.83429 -4.04385 39000 ft 453 kts 187°
2026-05-05 17:29 43.77182 -4.05091 39001 ft 453 kts 187°
2026-05-05 17:29 43.70884 -4.05800 38999 ft 453 kts 187°
2026-05-05 17:30 43.64599 -4.06507 39009 ft 453 kts 187°
2026-05-05 17:30 43.58300 -4.07214 39018 ft 454 kts 187°
2026-05-05 17:31 43.52038 -4.07915 39020 ft 454 kts 187°
2026-05-05 17:31 43.45733 -4.08620 39022 ft 454 kts 187°
2026-05-05 17:32 43.39427 -4.09323 39025 ft 454 kts 187°
2026-05-05 17:32 43.33161 -4.10020 39030 ft 454 kts 187°
2026-05-05 17:33 43.26844 -4.10722 39032 ft 454 kts 187°
2026-05-05 17:33 43.20536 -4.11421 39036 ft 454 kts 187°
2026-05-05 17:34 43.14270 -4.12113 39017 ft 454 kts 188°
2026-05-05 17:34 43.08004 -4.12803 39023 ft 451 kts 188°
2026-05-05 17:35 43.01735 -4.13495 39016 ft 452 kts 188°
2026-05-05 17:35 42.96507 -4.14070 39018 ft 452 kts 188°
2026-05-05 17:36 42.90247 -4.14757 39017 ft 451 kts 188°
2026-05-05 17:36 42.82969 -4.15555 39018 ft 451 kts 188°
2026-05-05 17:37 42.77717 -4.16128 39018 ft 452 kts 188°
2026-05-05 17:37 42.71479 -4.16809 39019 ft 452 kts 188°
2026-05-05 17:38 42.65200 -4.17492 39021 ft 452 kts 188°
2026-05-05 17:38 42.58920 -4.18175 39018 ft 452 kts 188°
2026-05-05 17:39 42.52637 -4.18855 39005 ft 452 kts 188°
2026-05-05 17:39 42.46404 -4.19529 39020 ft 452 kts 188°
2026-05-05 17:40 42.40130 -4.20207 39017 ft 452 kts 188°
2026-05-05 17:40 42.33857 -4.20882 39015 ft 451 kts 188°
2026-05-05 17:41 42.27597 -4.21555 39024 ft 451 kts 188°
2026-05-05 17:41 42.21381 -4.22222 39023 ft 450 kts 188°
2026-05-05 17:42 42.15117 -4.22894 39020 ft 450 kts 188°
2026-05-05 17:42 42.08905 -4.23556 39008 ft 449 kts 188°
2026-05-05 17:43 42.02685 -4.24219 39010 ft 448 kts 188°
2026-05-05 17:43 41.96465 -4.24884 39011 ft 448 kts 188°
2026-05-05 17:44 41.90277 -4.25541 38996 ft 448 kts 189°
2026-05-05 17:44 41.84043 -4.26202 39011 ft 448 kts 189°
2026-05-05 17:45 41.77815 -4.26861 39000 ft 448 kts 189°
2026-05-05 17:45 41.71624 -4.27515 39007 ft 448 kts 189°
2026-05-05 17:46 41.65391 -4.28171 38993 ft 448 kts 189°
2026-05-05 17:46 41.59202 -4.28823 38991 ft 448 kts 189°
2026-05-05 17:47 41.52979 -4.29477 38988 ft 448 kts 189°
2026-05-05 17:47 41.46760 -4.30128 38981 ft 447 kts 189°
2026-05-05 17:48 41.40552 -4.30777 38989 ft 447 kts 189°
2026-05-05 17:48 41.34380 -4.31423 38988 ft 447 kts 189°
2026-05-05 17:49 41.28167 -4.32070 38988 ft 447 kts 189°
2026-05-05 17:49 41.21951 -4.32716 38984 ft 447 kts 189°
2026-05-05 17:50 41.15773 -4.33358 38981 ft 447 kts 189°
2026-05-05 17:50 41.09551 -4.34003 38983 ft 447 kts 189°
2026-05-05 17:51 41.03334 -4.34645 38978 ft 447 kts 190°
2026-05-05 17:51 40.97126 -4.35285 38981 ft 447 kts 190°
2026-05-05 17:52 40.90947 -4.35923 38980 ft 447 kts 190°
2026-05-05 17:52 40.84728 -4.36563 38980 ft 447 kts 190°
2026-05-05 17:53 40.78522 -4.37198 38970 ft 446 kts 190°
2026-05-05 17:53 40.72546 -4.37811 38968 ft 445 kts 190°
2026-05-05 17:54 40.66361 -4.38445 38970 ft 446 kts 190°
2026-05-05 17:54 40.60170 -4.39077 38963 ft 445 kts 190°
2026-05-05 17:55 40.54023 -4.39703 38961 ft 446 kts 190°
2026-05-05 17:55 40.47826 -4.40334 38954 ft 446 kts 190°
2026-05-05 17:56 40.41653 -4.40961 38960 ft 446 kts 190°
2026-05-05 17:56 40.35472 -4.41583 38942 ft 440 kts 191°
2026-05-05 17:57 40.29374 -4.42200 38943 ft 440 kts 191°
2026-05-05 17:57 40.23302 -4.42817 38943 ft 440 kts 191°
2026-05-05 17:58 40.17189 -4.43433 38938 ft 440 kts 191°
2026-05-05 17:58 40.11109 -4.44042 38935 ft 437 kts 191°
2026-05-05 17:59 40.05032 -4.44654 38935 ft 438 kts 191°
2026-05-05 17:59 39.98996 -4.45260 38935 ft 437 kts 191°
2026-05-05 18:00 39.92916 -4.45869 38926 ft 436 kts 191°
2026-05-05 18:00 39.86868 -4.46471 38936 ft 435 kts 191°
2026-05-05 18:01 39.80837 -4.47073 38932 ft 434 kts 191°
2026-05-05 18:01 39.74846 -4.47670 38930 ft 433 kts 191°
2026-05-05 18:02 39.68826 -4.48268 38928 ft 432 kts 191°
2026-05-05 18:02 39.62821 -4.48865 38924 ft 432 kts 191°
2026-05-05 18:03 39.56861 -4.49456 38928 ft 431 kts 191°
2026-05-05 18:03 39.50860 -4.50050 38926 ft 432 kts 191°
2026-05-05 18:04 39.44857 -4.50642 38936 ft 432 kts 191°
2026-05-05 18:04 39.38880 -4.51232 38938 ft 432 kts 191°
2026-05-05 18:05 39.32870 -4.51824 38939 ft 433 kts 191°
2026-05-05 18:05 39.26849 -4.52416 38946 ft 434 kts 191°
2026-05-05 18:06 39.20852 -4.53003 38942 ft 434 kts 192°
2026-05-05 18:06 39.14805 -4.53595 38950 ft 435 kts 192°
2026-05-05 18:07 39.08754 -4.54186 38957 ft 436 kts 191°
2026-05-05 18:07 39.02692 -4.54778 38930 ft 437 kts 192°
2026-05-05 18:08 38.96683 -4.55362 38945 ft 434 kts 192°
2026-05-05 18:08 38.90704 -4.56267 38952 ft 430 kts 197°
2026-05-05 18:09 38.84797 -4.57520 38951 ft 430 kts 197°
2026-05-05 18:09 38.78915 -4.58753 38941 ft 429 kts 196°
2026-05-05 18:10 38.73042 -4.59975 38946 ft 426 kts 196°
2026-05-05 18:10 38.67198 -4.61188 38931 ft 424 kts 196°
2026-05-05 18:11 38.61329 -4.62408 38954 ft 429 kts 196°
2026-05-05 18:11 38.55473 -4.63619 38928 ft 428 kts 196°
2026-05-05 18:12 38.49606 -4.64830 38955 ft 426 kts 196°
2026-05-05 18:12 38.43737 -4.66041 38949 ft 427 kts 196°
2026-05-05 18:13 38.37865 -4.67250 38956 ft 427 kts 196°
2026-05-05 18:13 38.31994 -4.68457 38953 ft 427 kts 196°
2026-05-05 18:14 38.26147 -4.69656 38953 ft 427 kts 196°
2026-05-05 18:14 38.20273 -4.70860 38955 ft 427 kts 196°
2026-05-05 18:15 38.14428 -4.72056 38951 ft 427 kts 196°
2026-05-05 18:15 38.08548 -4.73257 38928 ft 428 kts 196°
2026-05-05 18:16 38.02684 -4.74452 38875 ft 426 kts 196°
2026-05-05 18:16 37.99754 -4.75049 38642 ft 426 kts 196°
2026-05-05 18:16 37.96826 -4.75645 38368 ft 425 kts 196°
2026-05-05 18:16 37.93901 -4.76238 38088 ft 424 kts 196°
2026-05-05 18:17 37.90982 -4.76831 37808 ft 424 kts 196°
2026-05-05 18:17 37.88099 -4.77417 37537 ft 424 kts 196°
2026-05-05 18:17 37.85171 -4.78011 37230 ft 424 kts 196°
2026-05-05 18:17 37.82260 -4.78602 36963 ft 425 kts 196°
2026-05-05 18:18 37.79338 -4.79194 36696 ft 425 kts 196°
2026-05-05 18:18 37.76422 -4.79784 36435 ft 425 kts 196°
2026-05-05 18:18 37.73500 -4.80375 36180 ft 425 kts 196°
2026-05-05 18:18 37.70572 -4.80967 35924 ft 425 kts 196°
2026-05-05 18:19 37.67689 -4.81549 35672 ft 424 kts 196°
2026-05-05 18:19 37.64769 -4.82138 35422 ft 424 kts 196°
2026-05-05 18:19 37.61847 -4.82727 35175 ft 425 kts 196°
2026-05-05 18:19 37.58924 -4.83317 34640 ft 427 kts 195°
2026-05-05 18:20 37.55976 -4.83912 33960 ft 428 kts 195°
2026-05-05 18:20 37.54020 -4.84305 33429 ft 428 kts 195°
2026-05-05 18:20 37.50103 -4.85089 32513 ft 425 kts 195°
2026-05-05 18:20 37.47181 -4.85675 31746 ft 424 kts 195°
2026-05-05 18:21 37.44265 -4.86260 31051 ft 423 kts 195°
2026-05-05 18:21 37.41417 -4.86829 30560 ft 417 kts 195°
2026-05-05 18:21 37.38568 -4.87398 30009 ft 413 kts 195°
2026-05-05 18:21 37.35745 -4.87963 29425 ft 407 kts 195°
2026-05-05 18:22 37.32961 -4.88519 28891 ft 402 kts 195°
2026-05-05 18:22 37.30212 -4.89069 28360 ft 397 kts 195°
2026-05-05 18:22 37.28405 -4.89431 28013 ft 400 kts 195°
2026-05-05 18:22 37.25556 -4.90014 27460 ft 422 kts 195°
2026-05-05 18:23 37.21656 -4.90802 26704 ft 431 kts 194°
2026-05-05 18:23 37.19651 -4.91199 26303 ft 430 kts 194°
2026-05-05 18:23 37.16705 -4.91780 25748 ft 426 kts 194°
2026-05-05 18:23 37.13833 -4.92346 25174 ft 421 kts 194°
2026-05-05 18:24 37.10951 -4.92917 24607 ft 416 kts 194°
2026-05-05 18:24 37.08100 -4.93483 24039 ft 411 kts 193°
2026-05-05 18:24 37.05254 -4.93885 23450 ft 411 kts 187°
2026-05-05 18:24 37.02403 -4.93854 22864 ft 408 kts 182°
2026-05-05 18:25 36.99578 -4.93693 22307 ft 402 kts 182°
2026-05-05 18:25 36.97733 -4.93593 21934 ft 399 kts 182°
2026-05-05 18:25 36.94087 -4.93403 21205 ft 391 kts 182°
2026-05-05 18:25 36.91372 -4.93263 20655 ft 387 kts 182°
2026-05-05 18:26 36.88689 -4.93124 20091 ft 383 kts 182°
2026-05-05 18:26 36.86036 -4.92987 19573 ft 379 kts 182°
2026-05-05 18:26 36.83447 -4.92855 19049 ft 375 kts 182°
2026-05-05 18:26 36.80840 -4.92723 18490 ft 373 kts 182°
2026-05-05 18:27 36.78256 -4.92592 17953 ft 370 kts 181°
2026-05-05 18:27 36.75692 -4.92461 17413 ft 366 kts 181°
2026-05-05 18:27 36.73157 -4.92331 16881 ft 363 kts 181°
2026-05-05 18:27 36.70647 -4.92202 16364 ft 359 kts 182°
2026-05-05 18:28 36.65722 -4.91951 15351 ft 353 kts 181°
2026-05-05 18:28 36.63267 -4.91826 14836 ft 351 kts 181°
2026-05-05 18:28 36.60834 -4.91697 14336 ft 349 kts 181°
2026-05-05 18:29 36.58415 -4.91573 13831 ft 347 kts 181°
2026-05-05 18:29 36.56007 -4.91452 13297 ft 345 kts 181°
2026-05-05 18:29 36.53627 -4.91333 12814 ft 339 kts 181°
2026-05-05 18:29 36.51278 -4.91214 12317 ft 336 kts 181°
2026-05-05 18:30 36.48946 -4.91095 11833 ft 333 kts 181°
2026-05-05 18:30 36.46672 -4.90978 11364 ft 330 kts 181°
2026-05-05 18:30 36.44386 -4.90860 10885 ft 327 kts 181°
2026-05-05 18:30 36.42112 -4.90741 10413 ft 325 kts 181°
2026-05-05 18:31 36.39883 -4.90626 10200 ft 314 kts 182°
2026-05-05 18:31 36.37747 -4.90505 10088 ft 300 kts 183°
2026-05-05 18:31 36.35679 -4.90402 9729 ft 296 kts 181°
2026-05-05 18:31 36.33636 -4.90296 9455 ft 289 kts 182°
2026-05-05 18:32 36.31644 -4.90189 9328 ft 289 kts 183°
2026-05-05 18:32 36.29627 -4.90097 9013 ft 297 kts 183°
2026-05-05 18:32 36.27553 -4.89996 8629 ft 299 kts 181°
2026-05-05 18:32 36.25491 -4.89889 8350 ft 293 kts 182°
2026-05-05 18:33 36.23458 -4.89789 7955 ft 291 kts 181°
2026-05-05 18:33 36.21426 -4.89688 7483 ft 292 kts 180°
2026-05-05 18:33 36.19401 -4.89589 7080 ft 291 kts 179°
2026-05-05 18:33 36.17405 -4.89488 6675 ft 290 kts 179°
2026-05-05 18:34 36.15406 -4.89580 6286 ft 286 kts 192°
2026-05-05 18:34 36.13544 -4.90397 5893 ft 282 kts 211°
2026-05-05 18:34 36.11856 -4.91607 5526 ft 279 kts 212°
2026-05-05 18:34 36.10179 -4.92808 5147 ft 277 kts 212°
2026-05-05 18:35 36.08514 -4.93994 4774 ft 276 kts 211°
2026-05-05 18:35 36.06851 -4.95170 4382 ft 274 kts 211°
2026-05-05 18:35 36.05202 -4.96334 4007 ft 272 kts 211°
2026-05-05 18:35 36.03566 -4.97497 3636 ft 270 kts 216°
2026-05-05 18:36 36.02285 -4.99121 3270 ft 263 kts 243°
2026-05-05 18:36 36.01814 -5.01222 3022 ft 251 kts 270°
2026-05-05 18:36 36.02202 -5.03296 2617 ft 250 kts 298°
2026-05-05 18:36 36.03233 -5.04999 2308 ft 246 kts 309°
2026-05-05 18:37 36.04309 -5.06606 2118 ft 238 kts 308°
2026-05-05 18:37 36.05376 -5.08218 2019 ft 243 kts 308°
2026-05-05 18:37 36.06432 -5.09828 1927 ft 240 kts 308°
2026-05-05 18:37 36.07463 -5.11410 1860 ft 232 kts 308°
2026-05-05 18:38 36.08450 -5.12931 1793 ft 221 kts 308°
2026-05-05 18:38 36.09390 -5.14378 1717 ft 210 kts 307°
2026-05-05 18:38 36.10260 -5.15720 1652 ft 189 kts 307°
2026-05-05 18:38 36.11036 -5.16917 1424 ft 169 kts 307°
2026-05-05 18:39 36.11753 -5.18024 1087 ft 158 kts 307°
2026-05-05 18:39 36.12386 -5.19002 991 ft 137 kts 307°
2026-05-05 18:39 36.12929 -5.19836 1001 ft 118 kts 306°
2026-05-05 18:39 36.13439 -5.20626 1005 ft 118 kts 306°
2026-05-05 18:40 36.13950 -5.21416 1004 ft 116 kts 304°
2026-05-05 18:40 36.14462 -5.22205 1002 ft 118 kts 304°
2026-05-05 18:40 36.14976 -5.22998 999 ft 119 kts 304°
2026-05-05 18:40 36.15409 -5.23840 1003 ft 112 kts 285°
2026-05-05 18:41 36.15488 -5.24778 1013 ft 109 kts 265°
2026-05-05 18:41 36.15434 -5.25728 999 ft 113 kts 266°
2026-05-05 18:41 36.15397 -5.26700 1007 ft 113 kts 267°
2026-05-05 18:41 36.15367 -5.27657 1001 ft 109 kts 268°
2026-05-05 18:42 36.15335 -5.28607 992 ft 113 kts 269°
2026-05-05 18:42 36.15305 -5.29577 833 ft 112 kts 268°
2026-05-05 18:42 36.15276 -5.30533 582 ft 107 kts 264°
2026-05-05 18:42 36.15247 -5.31469 541 ft 116 kts 264°
2026-05-05 18:43 36.15198 -5.32482 350 ft 113 kts 265°
2026-05-05 18:43 36.15177 -5.33448 180 ft 117 kts 265°
2026-05-05 18:43 36.15140 -5.34435 36 ft 112 kts 265°
2026-05-05 18:43 36.15112 -5.35191 23 ft 32 kts 269°
2026-05-05 18:44 36.15108 -5.35363 25 ft 20 kts 268°
2026-05-05 18:44 36.15094 -5.35464 25 ft 1 kts 275°
2026-05-05 18:44 36.15103 -5.35460 22 ft 1 kts 32°
2026-05-05 18:44 36.15111 -5.35386 23 ft 17 kts 82°
2026-05-05 18:45 36.15114 -5.35209 27 ft 23 kts 86°
2026-05-05 18:45 36.15123 -5.34991 23 ft 27 kts 87°
2026-05-05 18:45 36.15128 -5.34812 23 ft 15 kts 89°
2026-05-05 18:45 36.15167 -5.34682 22 ft 15 kts 20°
2026-05-05 18:46 36.15247 -5.34673 18 ft 10 kts
2026-05-05 18:46 36.15294 -5.34674 17 ft 0 kts 358°
2026-05-05 18:46 36.15305 -5.34675 17 ft 1 kts 358°
2026-05-05 18:46 36.15323 -5.34676 17 ft 0 kts 358°
2026-05-05 18:47 36.15317 -5.34675 17 ft 4 kts 358°
2026-05-05 18:47 36.15304 -5.34675 17 ft 0 kts 358°